CW3340 Weather Reports


Display with metric or nautical units.
time (UTC)temp
F
wind
direction
speed
MPH
gust
MPH
rain 1hr
in
rain 24hr
in
rain mn
in
humidity
%
barometer
mb
20180618230109 76 228 5.0 13.0 0.00 0.00 0.00 73 1009.2
20180618225608 76 213 6.0 13.0 0.00 0.00 0.00 73 1009.1
20180618225108 76 210 6.0 15.0 0.00 0.00 0.00 73 1009.2
20180618224608 76 213 6.0 15.0 0.00 0.00 0.00 73 1009.2
20180618224108 76 202 6.0 14.0 0.00 0.00 0.00 72 1009.3
20180618223608 76 212 8.0 18.0 0.00 0.00 0.00 72 1009.4
20180618223108 76 199 7.0 18.0 0.00 0.00 0.00 71 1009.5
20180618222608 77 206 7.0 17.0 0.00 0.00 0.00 71 1009.5
20180618222108 77 207 6.0 17.0 0.00 0.00 0.00 71 1009.6
20180618221608 77 184 6.0 20.0 0.00 0.00 0.00 71 1009.6
20180618221108 77 231 9.0 20.0 0.00 0.00 0.00 70 1009.6
20180618220608 78 196 8.0 15.0 0.00 0.00 0.00 69 1009.8
20180618220109 78 107 6.0 20.0 0.00 0.00 0.00 69 1009.9
20180618215608 78 193 5.0 20.0 0.00 0.00 0.00 70 1009.9
20180618215108 77 205 6.0 18.0 0.00 0.00 0.00 71 1010.0
20180618214608 77 206 7.0 20.0 0.00 0.00 0.00 71 1010.0
20180618214108 77 193 5.0 20.0 0.00 0.00 0.00 70 1010.2
20180618213608 78 208 8.0 20.0 0.00 0.00 0.00 70 1010.3
20180618213108 78 205 7.0 20.0 0.00 0.00 0.00 70 1010.5
20180618212608 78 191 9.0 22.0 0.00 0.00 0.00 70 1010.5
20180618212108 78 227 8.0 22.0 0.00 0.00 0.00 70 1010.6
20180618211608 79 198 5.0 20.0 0.00 0.00 0.00 70 1010.7
20180618211108 79 192 9.0 20.0 0.00 0.00 0.00 70 1010.9
20180618210608 79 195 10.0 20.0 0.00 0.00 0.00 69 1010.9
20180618210109 79 189 9.0 15.0 0.00 0.00 0.00 68 1011.0
20180618205608 80 217 7.0 20.0 0.00 0.00 0.00 67 1011.1
20180618205108 79 205 7.0 21.0 0.00 0.00 0.00 68 1011.1
20180618204608 79 192 9.0 21.0 0.00 0.00 0.00 68 1011.2
20180618204108 79 204 7.0 20.0 0.00 0.00 0.00 67 1011.3
20180618203608 79 199 7.0 20.0 0.00 0.00 0.00 68 1011.3
20180618203108 80 184 8.0 18.0 0.00 0.00 0.00 66 1011.4
20180618202608 80 219 7.0 18.0 0.00 0.00 0.00 66 1011.5
20180618202108 80 208 10.0 17.0 0.00 0.00 0.00 67 1011.4
20180618201608 79 180 9.0 18.0 0.00 0.00 0.00 67 1011.5
20180618201108 79 196 8.0 18.0 0.00 0.00 0.00 68 1011.5
20180618200608 79 195 7.0 20.0 0.00 0.00 0.00 69 1011.7
20180618200109 79 190 7.0 20.0 0.00 0.00 0.00 70 1011.7
20180618195608 79 201 11.0 20.0 0.00 0.00 0.00 70 1011.8
20180618195108 79 202 8.0 18.0 0.00 0.00 0.00 69 1011.8
20180618194609 80 179 8.0 20.0 0.00 0.00 0.00 69 1011.9
20180618194109 80 261 8.0 20.0 0.00 0.00 0.00 68 1012.0
20180618193609 80 217 10.0 20.0 0.00 0.00 0.00 68 1012.1
20180618193109 80 209 6.0 23.0 0.00 0.00 0.00 69 1012.2
20180618192609 80 173 8.0 23.0 0.00 0.00 0.00 68 1012.4
20180618192109 80 171 8.0 16.0 0.00 0.00 0.00 67 1012.5
20180618191610 80 160 9.0 15.0 0.00 0.00 0.00 67 1012.6
20180618191109 80 244 6.0 18.0 0.00 0.00 0.00 67 1012.7
20180618190609 81 189 7.0 18.0 0.00 0.00 0.00 66 1012.8
20180618190110 80 174 6.0 18.0 0.00 0.00 0.00 68 1012.8
20180618185609 80 186 11.0 20.0 0.00 0.00 0.00 68 1013.0
20180618185109 80 201 8.0 20.0 0.00 0.00 0.00 68 1013.0
20180618184609 80 194 12.0 20.0 0.00 0.00 0.00 66 1013.2
20180618184109 80 122 7.0 20.0 0.00 0.00 0.00 67 1013.2
20180618183609 81 195 7.0 17.0 0.00 0.00 0.00 67 1013.3
20180618183109 81 229 7.0 16.0 0.00 0.00 0.00 66 1013.4
20180618182609 81 220 6.0 16.0 0.00 0.00 0.00 66 1013.6
20180618182109 81 176 8.0 16.0 0.00 0.00 0.00 67 1013.7
20180618181609 81 207 8.0 16.0 0.00 0.00 0.00 66 1013.6
20180618181109 81 150 7.0 16.0 0.00 0.00 0.00 66 1013.7
20180618180609 81 190 7.0 17.0 0.00 0.00 0.00 66 1013.7
20180618180110 82 202 8.0 17.0 0.00 0.00 0.00 65 1013.9
20180618175609 81 185 5.0 14.0 0.00 0.00 0.00 67 1013.9
20180618175109 82 211 5.0 14.0 0.00 0.00 0.00 67 1013.9
20180618174609 82 259 7.0 14.0 0.00 0.00 0.00 67 1014.1
20180618174109 81 198 4.0 12.0 0.00 0.00 0.00 68 1014.2
20180618173609 80 198 6.0 14.0 0.00 0.00 0.00 69 1014.4
20180618173109 80 218 6.0 14.0 0.00 0.00 0.00 68 1014.5
20180618172609 81 202 7.0 16.0 0.00 0.00 0.00 68 1014.6
20180618172109 81 221 7.0 16.0 0.00 0.00 0.00 68 1014.6
20180618171609 81 200 5.0 15.0 0.00 0.00 0.00 68 1014.7
20180618171109 80 191 6.0 15.0 0.00 0.00 0.00 70 1014.7
20180618170609 80 187 7.0 13.0 0.00 0.00 0.00 70 1014.9
20180618170110 79 200 7.0 13.0 0.00 0.00 0.00 70 1014.9
20180618165609 80 241 7.0 13.0 0.00 0.00 0.00 69 1015.0
20180618165109 81 177 4.0 13.0 0.00 0.00 0.00 69 1015.0
20180618164609 80 229 6.0 14.0 0.00 0.00 0.00 70 1015.0
20180618164109 80 165 6.0 14.0 0.00 0.00 0.00 69 1014.9
20180618163609 81 179 4.0 12.0 0.00 0.00 0.00 71 1015.0
20180618163109 80 199 9.0 12.0 0.00 0.00 0.00 71 1015.1
20180618162609 80 188 6.0 12.0 0.00 0.00 0.00 72 1015.1
20180618162109 79 192 7.0 12.0 0.00 0.00 0.00 73 1015.2
20180618161609 79 199 5.0 12.0 0.00 0.00 0.00 73 1015.1
20180618161109 79 124 5.0 12.0 0.00 0.00 0.00 74 1015.2
20180618160609 79 172 5.0 12.0 0.00 0.00 0.00 75 1015.3
20180618160110 78 163 8.0 12.0 0.00 0.00 0.00 74 1015.4
20180618155609 79 143 7.0 12.0 0.00 0.00 0.00 74 1015.4
20180618155108 79 117 5.0 12.0 0.00 0.00 0.00 75 1015.5
20180618154609 78 167 5.0 12.0 0.00 0.00 0.00 76 1015.4
20180618154109 78 187 6.0 12.0 0.00 0.00 0.00 74 1015.5
20180618153609 78 152 4.0 12.0 0.00 0.00 0.00 76 1015.6
20180618153109 78 210 2.0 13.0 0.00 0.00 0.00 75 1015.7
20180618152608 79 174 4.0 13.0 0.00 0.00 0.00 75 1015.7
20180618152109 78 172 6.0 12.0 0.00 0.00 0.00 75 1015.8
20180618151609 79 181 6.0 12.0 0.00 0.00 0.00 73 1015.9
20180618151109 79 185 4.0 10.0 0.00 0.00 0.00 74 1015.9
20180618150609 78 188 3.0 9.0 0.00 0.00 0.00 76 1015.8
20180618150110 78 186 5.0 12.0 0.00 0.00 0.00 75 1015.9
20180618145609 78 194 5.0 12.0 0.00 0.00 0.00 75 1015.9
20180618145109 78 164 6.0 12.0 0.00 0.00 0.00 76 1015.9
20180618144609 77 133 5.0 12.0 0.00 0.00 0.00 76 1015.9
20180618144109 77 187 6.0 12.0 0.00 0.00 0.00 77 1015.9
20180618143609 77 170 5.0 12.0 0.00 0.00 0.00 76 1016.0
20180618143109 77 199 3.0 12.0 0.00 0.00 0.00 76 1016.0
20180618142608 77 162 5.0 10.0 0.00 0.00 0.00 76 1016.0
20180618142109 77 156 4.0 10.0 0.00 0.00 0.00 77 1016.1
20180618141608 77 199 4.0 9.0 0.00 0.00 0.00 77 1016.1
20180618141109 76 192 3.0 9.0 0.00 0.00 0.00 79 1016.2
20180618140609 76 197 5.0 9.0 0.00 0.00 0.00 80 1016.2
20180618140110 75 135 5.0 9.0 0.00 0.00 0.00 80 1016.3
20180618135608 76 179 5.0 10.0 0.00 0.00 0.00 80 1016.3
20180618135109 75 152 4.0 12.0 0.00 0.00 0.00 81 1016.3
20180618134608 75 174 1.0 12.0 0.00 0.00 0.00 81 1016.2
20180618134108 75 197 6.0 12.0 0.00 0.00 0.00 81 1016.3
20180618133608 75 187 5.0 9.0 0.00 0.00 0.00 82 1016.4
20180618133108 75 205 7.0 12.0 0.00 0.00 0.00 81 1016.5
20180618132608 75 156 6.0 12.0 0.00 0.00 0.00 81 1016.5
20180618132109 76 179 3.0 9.0 0.00 0.00 0.00 80 1016.5
20180618131609 76 171 3.0 9.0 0.00 0.00 0.00 80 1016.5
20180618131109 75 170 5.0 9.0 0.00 0.00 0.00 80 1016.5
20180618130608 75 236 2.0 8.0 0.00 0.00 0.00 82 1016.7
20180618130109 74 176 2.0 6.0 0.00 0.00 0.00 82 1016.8
20180618125608 74 195 2.0 6.0 0.00 0.00 0.00 83 1016.8
20180618125108 73 227 3.0 6.0 0.00 0.00 0.00 84 1016.8
20180618124609 73 222 2.0 7.0 0.00 0.00 0.00 84 1016.9
20180618124108 73 174 2.0 9.0 0.00 0.00 0.00 84 1016.8
20180618123608 73 248 3.0 9.0 0.00 0.00 0.00 84 1016.8
20180618123108 73 219 2.0 7.0 0.00 0.00 0.00 84 1016.8
20180618122608 73 245 1.0 7.0 0.00 0.00 0.00 84 1016.9
20180618122108 73 205 1.0 9.0 0.00 0.00 0.00 85 1016.9
20180618121608 73 189 2.0 9.0 0.00 0.00 0.00 85 1017.0
20180618121108 73 203 2.0 9.0 0.00 0.00 0.00 86 1017.1
20180618120608 72 198 3.0 7.0 0.00 0.00 0.00 86 1017.2
20180618120109 72 197 3.0 7.0 0.00 0.00 0.00 87 1017.2
20180618115608 72 216 3.0 12.0 0.00 0.00 0.00 87 1017.2
20180618115108 72 199 1.0 12.0 0.00 0.00 0.00 87 1017.2
20180618114608 71 226 5.0 12.0 0.00 0.00 0.00 88 1017.2
20180618114108 71 161 6.0 12.0 0.00 0.00 0.00 88 1017.2
20180618113608 71 234 7.0 10.0 0.00 0.00 0.00 88 1017.2
20180618113109 71 246 1.0 10.0 0.00 0.00 0.00 88 1017.4
20180618112608 71 234 5.0 10.0 0.00 0.00 0.00 89 1017.4
20180618112108 71 189 1.0 8.0 0.00 0.00 0.00 89 1017.3
20180618111609 70 217 3.0 8.0 0.00 0.00 0.00 90 1017.3
20180618111108 70 179 2.0 7.0 0.00 0.00 0.00 90 1017.4
20180618110608 70 207 2.0 8.0 0.00 0.00 0.00 90 1017.4
20180618110109 70 196 3.0 8.0 0.00 0.00 0.00 90 1017.5
20180618105608 70 239 4.0 8.0 0.00 0.00 0.00 90 1017.5
20180618105108 70 214 4.0 7.0 0.00 0.00 0.00 90 1017.6
20180618104608 70 193 2.0 6.0 0.00 0.00 0.00 91 1017.6
20180618104108 69 170 0.0 5.0 0.00 0.00 0.00 91 1017.6
20180618103608 69 213 1.0 7.0 0.00 0.00 0.00 91 1017.7
20180618103109 69 234 0.0 7.0 0.00 0.00 0.00 91 1017.7
20180618102609 69 199 0.0 5.0 0.00 0.00 0.00 92 1017.7
20180618102109 68 235 1.0 5.0 0.00 0.00 0.00 92 1017.7
20180618101609 68 220 2.0 5.0 0.00 0.00 0.00 92 1017.6
20180618101108 68 234 1.0 3.0 0.00 0.00 0.00 92 1017.5
20180618100609 68 211 1.0 3.0 0.00 0.00 0.00 92 1017.5
20180618100110 67 212 0.0 1.0 0.00 0.00 0.00 92 1017.5
20180618095608 67 211 0.0 3.0 0.00 0.00 0.00 92 1017.5
20180618095109 67 204 0.0 3.0 0.00 0.00 0.00 92 1017.5
20180618094608 67 218 1.0 3.0 0.00 0.00 0.00 92 1017.6
20180618093609 67 227 0.0 1.0 0.00 0.00 0.00 91 1017.7
20180618093108 67 227 0.0 1.0 0.00 0.00 0.00 91 1017.7
20180618092608 67 227 0.0 0.0 0.00 0.00 0.00 91 1017.7
20180618092109 67 227 0.0 0.0 0.00 0.00 0.00 90 1017.7
20180618091608 67 227 0.0 0.0 0.00 0.00 0.00 90 1017.7
20180618091108 67 227 0.0 0.0 0.00 0.00 0.00 90 1017.7
20180618090608 67 241 0.0 0.0 0.00 0.00 0.00 89 1017.7
20180618090110 67 241 0.0 0.0 0.00 0.00 0.00 89 1017.6
20180618085608 68 241 0.0 0.0 0.00 0.00 0.00 89 1017.6
20180618085109 68 241 0.0 0.0 0.00 0.00 0.00 89 1017.5
20180618084608 68 241 0.0 1.0 0.00 0.00 0.00 89 1017.5
20180618084108 68 241 0.0 1.0 0.00 0.00 0.00 89 1017.6
20180618083608 68 244 0.0 0.0 0.00 0.00 0.00 89 1017.7
20180618083108 68 245 0.0 0.0 0.00 0.00 0.00 89 1017.7
20180618082608 68 243 0.0 0.0 0.00 0.00 0.00 89 1017.7
20180618082108 68 243 0.0 0.0 0.00 0.00 0.00 89 1017.6
20180618081608 68 243 0.0 0.0 0.00 0.00 0.00 89 1017.6
20180618081108 68 243 0.0 0.0 0.00 0.00 0.00 88 1017.6
20180618080608 68 243 0.0 0.0 0.00 0.00 0.00 88 1017.6
20180618080109 68 243 0.0 0.0 0.00 0.00 0.00 88 1017.6
20180618075608 68 243 0.0 0.0 0.00 0.00 0.00 88 1017.6
20180618075108 68 243 0.0 0.0 0.00 0.00 0.00 88 1017.7
20180618074608 68 243 0.0 0.0 0.00 0.00 0.00 88 1017.8
20180618074109 68 243 0.0 0.0 0.00 0.00 0.00 87 1017.9
20180618073608 68 243 0.0 0.0 0.00 0.00 0.00 87 1018.0
20180618073108 68 243 0.0 0.0 0.00 0.00 0.00 87 1018.0
20180618072608 68 243 0.0 0.0 0.00 0.00 0.00 87 1018.1
20180618072108 68 243 0.0 0.0 0.00 0.00 0.00 87 1018.0
20180618071608 68 243 0.0 0.0 0.00 0.00 0.00 87 1018.1
20180618071108 68 243 0.0 0.0 0.00 0.00 0.00 86 1018.0
20180618070610 69 243 0.0 0.0 0.00 0.00 0.00 86 1018.0
20180618070109 69 243 0.0 0.0 0.00 0.00 0.00 86 1018.0
20180618065608 69 243 0.0 0.0 0.00 0.00 0.00 86 1017.9
20180618065108 69 243 0.0 0.0 0.00 0.00 0.00 85 1018.0
20180618064608 69 243 0.0 0.0 0.00 0.00 0.00 85 1017.9
20180618064108 69 243 0.0 0.0 0.00 0.00 0.00 85 1017.9
20180618063609 69 243 0.0 0.0 0.00 0.00 0.00 85 1017.9
20180618063108 69 243 0.0 3.0 0.00 0.00 0.00 85 1017.9
20180618062608 69 241 0.0 3.0 0.00 0.00 0.00 84 1017.9
20180618062108 69 242 0.0 3.0 0.00 0.00 0.00 84 1018.0
20180618061608 69 245 0.0 0.0 0.00 0.00 0.00 84 1018.0
20180618061108 69 246 0.0 0.0 0.00 0.00 0.00 84 1018.1
20180618060608 69 247 0.0 0.0 0.00 0.00 0.00 83 1018.1
20180618060109 69 247 0.0 0.0 0.00 0.00 0.00 83 1018.2
20180618055608 69 247 0.0 1.0 0.00 0.00 0.00 83 1018.1
20180618055108 70 247 0.0 3.0 0.00 0.00 0.00 82 1018.2
20180618054608 70 252 0.0 3.0 0.00 0.00 0.00 82 1018.2
20180618054108 70 253 1.0 3.0 0.00 0.00 0.00 82 1018.2
20180618053608 70 231 1.0 3.0 0.00 0.00 0.00 82 1018.1
20180618053108 70 259 1.0 6.0 0.00 0.00 0.00 82 1018.1
20180618052608 69 238 1.0 6.0 0.00 0.00 0.00 83 1018.1
20180618052108 69 237 1.0 5.0 0.00 0.00 0.00 83 1018.1
20180618051608 69 227 1.0 3.0 0.00 0.00 0.00 84 1018.3
20180618051108 69 229 0.0 3.0 0.00 0.00 0.00 84 1018.4
20180618050608 69 229 1.0 3.0 0.00 0.00 0.00 85 1018.3
20180618050109 69 193 0.0 0.0 0.00 0.00 0.00 85 1018.3
20180618045608 69 193 0.0 0.0 0.00 0.00 0.00 85 1018.3
20180618045108 69 193 0.0 0.0 0.00 0.00 0.00 85 1018.3
20180618044608 69 193 0.0 0.0 0.00 0.00 0.00 85 1018.3
20180618044108 69 193 0.0 0.0 0.00 0.00 0.00 85 1018.3
20180618043608 69 193 0.0 1.0 0.00 0.00 0.00 85 1018.3
20180618043108 69 193 0.0 3.0 0.00 0.00 0.00 85 1018.3
20180618042608 69 193 0.0 3.0 0.00 0.00 0.00 85 1018.2
20180618042108 69 207 0.0 3.0 0.00 0.00 0.00 85 1018.3
20180618041608 69 203 0.0 2.0 0.00 0.00 0.00 85 1018.4
20180618041108 69 203 1.0 3.0 0.00 0.00 0.00 85 1018.4
20180618040608 69 203 0.0 3.0 0.00 0.00 0.00 85 1018.4
20180618040109 69 217 0.0 3.0 0.00 0.00 0.00 85 1018.3
20180618035608 69 194 1.0 3.0 0.00 0.00 0.00 85 1018.3
20180618035108 70 201 1.0 2.0 0.00 0.00 0.00 84 1018.2
20180618034608 70 204 0.0 3.0 0.00 0.00 0.00 84 1018.2
20180618034108 70 206 1.0 3.0 0.00 0.00 0.00 84 1018.2
20180618033608 70 199 1.0 9.0 0.00 0.00 0.00 84 1018.1
20180618033108 70 211 1.0 9.0 0.00 0.00 0.00 83 1018.1
20180618032608 70 228 2.0 8.0 0.00 0.00 0.00 83 1018.1
20180618032108 71 221 3.0 12.0 0.00 0.00 0.00 83 1018.1
20180618031608 71 200 5.0 12.0 0.00 0.00 0.00 83 1018.1
20180618031108 71 234 2.0 12.0 0.00 0.00 0.00 83 1018.2
20180618030608 70 210 1.0 12.0 0.00 0.00 0.00 83 1018.1
20180618030109 70 192 3.0 12.0 0.00 0.00 0.00 83 1018.1
20180618025608 70 245 1.0 6.0 0.00 0.00 0.00 83 1018.1
20180618025108 70 197 0.0 7.0 0.00 0.00 0.00 84 1018.2
20180618024608 70 244 0.0 7.0 0.00 0.00 0.00 84 1018.1
20180618024108 70 218 3.0 7.0 0.00 0.00 0.00 84 1018.2
20180618023608 70 182 1.0 6.0 0.00 0.00 0.00 84 1018.2
20180618023108 70 209 3.0 6.0 0.00 0.00 0.00 83 1018.2
20180618022608 70 189 1.0 6.0 0.00 0.00 0.00 83 1018.3
20180618022108 70 274 1.0 8.0 0.00 0.00 0.00 83 1018.2
20180618021608 70 198 1.0 8.0 0.00 0.00 0.00 82 1018.3
20180618021108 70 180 3.0 8.0 0.00 0.00 0.00 82 1018.3
20180618020608 70 232 1.0 7.0 0.00 0.00 0.00 82 1018.3
20180618020109 70 226 1.0 7.0 0.00 0.00 0.00 81 1018.3
20180618015608 70 205 3.0 6.0 0.00 0.00 0.00 81 1018.2
20180618015108 70 222 0.0 8.0 0.00 0.00 0.00 81 1018.2
20180618014608 71 202 3.0 12.0 0.00 0.00 0.00 80 1018.2
20180618014108 71 196 3.0 12.0 0.00 0.00 0.00 80 1018.2
20180618013608 71 189 3.0 7.0 0.00 0.00 0.00 79 1018.2
20180618013108 71 192 1.0 8.0 0.00 0.00 0.00 79 1018.2
20180618012608 71 181 1.0 12.0 0.00 0.00 0.00 79 1018.1
20180618012108 71 174 3.0 12.0 0.00 0.00 0.00 79 1018.1
20180618011608 71 183 6.0 12.0 0.00 0.00 0.00 78 1018.0
20180618011108 71 165 3.0 9.0 0.00 0.00 0.00 78 1018.0
20180618010608 71 219 2.0 9.0 0.00 0.00 0.00 78 1018.0
20180618005608 71 189 5.0 13.0 0.00 0.00 0.00 77 1017.9
20180618005108 71 202 5.0 12.0 0.00 0.00 0.00 76 1017.8
20180618004608 72 205 5.0 10.0 0.00 0.00 0.00 76 1017.8
20180618004108 72 193 5.0 10.0 0.00 0.00 0.00 75 1017.7
20180618003608 72 216 4.0 10.0 0.00 0.00 0.00 75 1017.8
20180618003108 72 180 3.0 9.0 0.00 0.00 0.00 74 1017.9
20180618002608 72 199 4.0 9.0 0.00 0.00 0.00 74 1018.0
20180618002108 73 193 2.0 9.0 0.00 0.00 0.00 73 1018.0
20180618001608 73 182 5.0 12.0 0.00 0.00 0.00 72 1018.1
20180618001108 73 183 3.0 12.0 0.00 0.00 0.00 71 1018.2
20180618000608 73 173 5.0 8.0 0.00 0.00 0.00 70 1018.2
20180618000109 74 201 1.0 8.0 0.00 0.00 0.00 69 1018.3
20180617235608 74 195 2.0 10.0 0.00 0.00 0.00 68 1018.3
20180617235108 74 189 3.0 10.0 0.00 0.00 0.00 67 1018.3
20180617234608 74 195 2.0 8.0 0.00 0.00 0.00 66 1018.2
20180617234108 75 190 3.0 12.0 0.00 0.00 0.00 66 1018.2
20180617233608 75 184 3.0 12.0 0.00 0.00 0.00 64 1018.1
20180617233108 76 185 4.0 9.0 0.00 0.00 0.00 63 1018.2
20180617232608 76 177 3.0 8.0 0.00 0.00 0.00 63 1018.2
20180617232108 76 170 2.0 9.0 0.00 0.00 0.00 62 1018.2
20180617231608 76 161 2.0 10.0 0.00 0.00 0.00 62 1018.1
20180617231108 77 190 4.0 10.0 0.00 0.00 0.00 61 1018.2
20180617230608 77 199 5.0 12.0 0.00 0.00 0.00 60 1018.1